CAPE
0 0 0 0 0 0 0 0 0 0 0 0 0 0 0 0 0 0 0 0 0 0 0 0 0 0 0 0 0 0 4 4 3 3 7 8 8 14 22 25 16 20 14 21
0 0 0 0 0 0 0 0 0 0 0 0 0 0 0 0 0 0 0 0 0 0 0 0 0 0 0 0 2 1 5 7 3 6 9 10 9 13 20 23 22 24 18 30
0 0 0 0 0 0 0 0 0 0 0 0 0 0 0 0 0 0 0 0 0 0 0 0 0 0 4 1 3 3 7 4 3 5 12 11 8 9 13 17 23 28 26 29
0 0 0 2 0 0 0 0 0 0 0 0 0 0 0 0 0 0 0 0 0 0 0 0 0 0 0 1 12 4 8 5 4 7 11 12 14 15 8 12 19 28 27 29
0 0 0 0 0 0 0 0 0 0 0 0 0 0 0 0 0 0 0 0 0 0 0 0 0 0 2 2 7 3 6 6 5 11 16 18 24 32 9 5 16 23 28 27
0 0 0 0 0 0 0 0 0 0 0 0 0 0 0 0 0 0 0 0 0 0 0 0 0 0 1 1 5 3 6 8 15 13 17 18 24 10 31 9 9 14 20 21
0 0 0 0 0 0 0 3 0 0 0 0 0 0 0 0 0 0 0 0 0 0 0 0 0 1 1 1 3 4 11 12 14 15 20 24 8 11 38 16 10 14 16 14
0 0 0 0 0 0 0 0 0 0 0 0 0 0 0 0 0 0 0 0 0 0 0 0 0 0 2 2 8 10 13 10 17 12 13 17 6 13 17 17 19 17 14 29
0 0 0 0 0 0 0 0 0 0 0 0 0 0 0 0 0 0 0 0 0 0 0 0 0 0 3 1 9 10 12 16 15 8 12 10 5 13 21 16 18 18 23 28
0 0 0 0 0 0 0 0 0 0 0 0 0 0 0 0 0 0 0 0 0 0 0 0 0 0 0 2 10 17 14 19 16 11 9 18 6 8 20 21 29 27 27 37
0 0 0 0 0 0 0 0 0 0 0 0 0 0 0 0 0 0 0 0 0 0 0 0 0 0 0 1 6 15 15 13 17 15 10 18 12 11 15 18 25 24 27 33
0 0 0 0 0 0 0 0 0 0 0 0 0 0 0 0 0 0 0 0 0 0 0 0 0 0 0 0 12 15 16 18 17 18 16 13 17 14 16 12 19 23 14 29
0 0 0 0 0 0 0 0 0 0 0 0 0 0 0 0 0 1 0 0 0 0 0 0 0 0 0 0 1 9 11 18 17 11 14 16 13 13 10 21 15 21 28 19
0 0 0 0 0 0 0 0 0 0 0 0 0 0 0 0 0 0 0 0 0 0 0 0 0 0 0 2 5 1 9 13 16 18 20 8 9 11 10 10 19 50 36 27
0 0 0 0 0 0 0 0 0 0 0 0 0 0 0 0 0 0 0 0 0 0 0 0 0 0 0 2 1 3 13 13 16 19 16 13 8 2 8 7 19 20 23 17
0 0 0 0 0 0 0 0 0 0 0 0 0 0 0 0 0 0 0 0 0 0 0 0 0 0 0 0 1 11 7 6 12 16 14 8 5 3 9 13 10 23 39 29
0 0 0 0 0 0 0 0 0 0 0 0 0 0 0 0 0 0 0 0 0 0 0 0 1 0 0 0 5 10 8 5 9 9 16 10 8 6 1 13 10 6 30 49
0 0 0 0 0 0 0 0 0 0 0 0 0 0 0 0 0 0 0 0 0 0 0 1 0 2 0 0 12 5 6 4 5 7 13 13 11 5 3 1 4 9 0 0
0 0 0 0 0 0 0 0 0 0 0 0 0 0 0 0 0 0 0 0 0 0 0 1 3 3 9 8 12 3 4 3 2 3 9 11 8 4 3 2 3 1 1 0
0 0 0 0 0 0 0 0 0 0 0 0 0 0 0 0 0 0 0 0 0 1 5 0 0 3 8 5 4 1 3 4 2 2 6 7 8 3 1 2 3 3 2 0
0 0 0 0 0 0 0 0 0 0 0 0 0 0 0 0 0 0 0 0 0 1 6 0 0 12 12 2 0 1 1 4 1 1 4 4 5 6 1 0 1 2 2 1
0 0 0 0 0 0 0 0 0 0 0 0 0 0 0 0 0 0 0 0 0 7 0 0 1 8 9 0 0 1 2 3 2 0 1 1 3 4 3 0 0 1 2 1
0 0 0 0 0 0 0 0 0 0 0 0 0 0 0 0 0 0 0 0 0 4 0 0 9 13 3 0 0 3 1 2 3 1 1 0 1 3 4 0 0 2 3 0
0 0 0 0 0 0 0 0 0 0 0 0 0 0 0 0 0 0 0 0 1 2 0 1 11 9 3 0 1 2 1 1 3 4 2 4 0 1 3 2 1 1 3 0
0 0 0 0 0 0 0 0 0 0 0 0 0 0 0 0 0 0 0 0 0 0 0 0 4 4 1 1 1 1 1 2 4 6 1 1 2 2 3 3 3 6 1 0
0 0 0 0 0 0 0 0 0 0 0 0 0 0 0 0 0 0 0 0 0 0 0 0 0 1 0 0 0 0 1 1 1 2 2 2 2 1 1 3 5 2 1 0
0 3 0 0 0 0 0 0 1 0 1 0 0 0 0 0 0 0 0 0 0 0 0 0 0 0 0 0 0 0 0 1 1 3 0 1 4 5 3 2 2 4 4 2
CIN
0 0 0 0 0 0 0 0 0 0 0 0 0 0 0 0 0 0 0 0 0 0 0 0 0 0 0 0 0 0 0 0 0 0 0 0 0 0 0 0 0 0 0 0
0 0 0 0 0 0 0 0 0 0 0 0 0 0 0 0 0 0 0 0 0 0 0 0 0 0 0 0 0 0 0 0 0 0 0 0 0 0 0 0 0 0 0 0
0 0 0 0 0 0 0 0 0 0 0 0 0 0 0 0 0 0 0 0 0 0 0 0 0 0 0 0 0 0 0 0 0 0 0 0 0 0 0 0 0 0 0 0
0 0 0 -1 0 0 0 0 0 0 0 0 0 0 0 0 0 0 0 0 0 0 0 0 0 0 0 0 0 0 0 0 0 0 0 0 0 0 0 0 0 0 0 0
0 0 0 0 0 0 0 0 0 0 0 0 0 0 0 0 0 0 0 0 0 0 0 0 0 0 0 0 0 0 0 0 0 0 0 0 0 0 0 0 0 0 0 0
0 0 0 0 0 0 0 0 0 0 0 0 0 0 0 0 0 0 0 0 0 0 0 0 0 0 0 0 0 0 0 0 0 0 0 0 0 0 0 0 0 0 0 0
0 0 0 0 0 0 0 -1 0 0 0 0 0 0 0 0 0 0 0 0 0 0 0 0 0 0 0 0 0 0 0 0 0 0 0 0 0 0 0 0 0 0 0 0
0 0 0 0 0 0 0 0 0 0 0 0 0 0 0 0 0 0 0 0 0 0 0 0 0 0 0 0 0 0 0 0 0 0 0 0 0 0 0 0 0 0 0 0
0 0 0 0 0 0 0 0 0 0 0 0 0 0 0 0 0 0 0 0 0 0 0 0 0 0 0 0 0 0 0 0 0 0 0 0 0 0 0 0 0 0 0 0
0 0 0 0 0 0 0 0 0 0 0 0 0 0 0 0 0 0 0 0 0 0 0 0 0 0 0 0 0 0 0 0 0 0 0 0 0 0 0 0 0 0 0 0
0 0 0 0 0 0 0 0 0 0 0 0 0 0 0 0 0 0 0 0 0 0 0 0 0 0 0 0 0 0 0 0 0 0 0 0 0 0 0 0 0 0 0 0
0 0 0 0 0 0 0 0 0 0 0 0 0 0 0 0 0 0 0 0 0 0 0 0 0 0 0 0 0 0 0 0 0 0 0 0 0 0 0 0 0 0 0 0
0 0 0 0 0 0 0 0 0 0 0 0 0 0 0 0 0 0 0 0 0 0 0 0 0 0 0 0 0 0 0 0 0 0 0 0 0 0 0 0 0 0 0 0
0 0 0 0 0 0 0 0 0 0 0 0 0 0 0 0 0 0 0 0 0 0 0 0 0 0 0 0 0 0 0 0 0 0 0 0 0 0 0 0 0 0 0 0
0 0 0 0 0 0 0 0 0 0 0 0 0 0 0 0 0 0 0 0 0 0 0 0 0 0 0 0 0 0 0 0 0 0 0 0 0 0 0 0 0 0 -1 0
0 0 0 0 0 0 0 0 0 0 0 0 0 0 0 0 0 0 0 0 0 0 0 0 0 0 0 -1 0 0 0 0 0 0 0 0 0 0 -5 0 0 0 0 0
0 0 0 0 0 0 0 0 0 0 0 0 0 0 0 0 0 0 0 0 0 0 0 0 0 0 0 0 0 0 0 0 0 0 0 0 0 0 0 0 0 -2 -2 -1
0 0 0 0 0 0 0 0 0 0 0 0 0 0 0 0 0 0 0 0 0 0 0 0 0 -1 0 0 0 0 0 0 0 0 0 0 0 0 0 0 -1 -2 0 0
0 0 0 0 0 0 0 0 0 0 0 0 0 0 0 0 0 0 0 0 0 0 0 0 0 0 0 0 0 0 0 0 0 0 0 0 0 0 0 0 0 0 -6 0
0 0 0 0 0 0 0 0 0 0 0 0 0 0 0 0 0 0 0 0 0 0 0 0 0 0 0 0 0 0 0 0 0 0 0 0 0 0 0 0 0 0 0 0
0 0 0 0 0 0 0 0 0 0 0 0 0 0 0 0 0 0 0 0 0 0 0 0 0 -1 0 0 0 0 0 0 0 0 0 0 0 0 0 0 0 0 0 0
0 0 0 0 0 0 0 0 0 0 0 0 0 0 0 0 0 0 0 0 0 0 0 0 0 0 0 0 0 0 0 0 0 0 0 0 0 0 0 0 0 0 0 0
0 0 0 0 0 0 0 0 0 0 0 0 0 0 0 0 0 0 0 0 0 0 0 0 0 0 0 0 0 0 0 0 0 0 0 0 0 0 0 0 0 0 0 0
0 0 0 0 0 0 0 0 0 0 0 0 0 0 0 0 0 0 0 0 0 0 0 0 0 0 0 0 0 0 0 0 0 0 0 0 0 0 0 0 0 0 0 0
0 0 0 0 0 0 0 0 0 0 0 0 0 0 0 0 0 0 0 0 0 0 0 0 0 0 0 0 0 0 0 0 0 0 0 0 0 0 0 0 0 0 0 0
0 0 0 0 0 0 0 0 0 0 0 0 0 0 0 0 0 0 0 0 0 0 0 0 0 0 0 0 0 0 0 0 0 0 0 0 0 0 0 0 0 0 0 0
-1 0 0 0 0 0 0 0 0 0 0 0 0 0 0 0 0 0 0 0 0 0 0 0 0 0 0 0 0 0 0 0 0 0 0 0 0 0 0 0 0 0 0 0
Wind_Speed
20 22 17 24 17 12 15 16 12 27 14 31 28 26 25 20 18 16 17 10 10 11 12 14 15 16 17 18 18 17 18 18 19 20 19 19 19 19 18 18 19 18 19 19
14 5 12 18 13 18 20 19 23 30 38 32 30 18 18 18 17 19 21 15 12 12 15 16 16 16 17 18 18 17 18 19 18 19 19 19 18 18 18 18 19 19 19 18
10 6 11 9 9 14 9 11 9 12 20 5 13 14 15 17 18 21 22 14 11 12 12 14 16 17 16 18 18 18 19 19 18 19 19 19 18 19 18 18 17 19 19 19
10 10 4 5 4 4 12 11 21 17 20 21 21 18 14 18 19 20 14 10 10 11 11 15 17 17 18 18 17 18 19 19 18 19 18 19 18 17 18 16 18 17 18 18
5 5 14 14 4 3 1 8 13 20 21 19 19 13 17 17 13 13 8 8 10 10 12 12 15 16 16 18 18 18 18 17 18 18 19 18 19 17 17 16 16 16 16 18
2 5 9 7 4 5 4 12 8 6 15 17 9 18 20 3 4 8 8 8 8 10 12 11 14 16 17 18 18 18 18 19 18 19 20 19 17 15 14 15 16 14 15 16
10 8 13 15 3 5 10 16 21 16 16 18 19 15 26 20 9 6 6 8 9 9 11 11 12 13 17 17 18 18 19 19 19 18 19 19 13 11 10 12 13 15 15 14
6 7 13 7 6 6 15 19 19 23 20 26 23 24 20 15 10 8 9 8 10 10 13 13 12 11 16 17 18 18 18 19 17 19 16 8 10 9 9 11 12 13 13 12
12 10 6 8 14 16 18 19 21 18 24 23 25 23 19 11 8 8 9 8 9 10 13 14 12 11 15 18 19 19 18 18 18 18 16 10 10 10 9 11 11 11 11 11
7 10 23 18 21 20 15 16 20 22 22 22 23 21 18 12 9 8 8 8 9 10 13 15 14 14 14 17 19 18 18 17 16 14 15 11 9 8 9 10 11 11 11 11
17 21 27 10 10 23 24 23 24 21 20 22 19 19 14 10 9 9 9 9 9 9 12 15 15 15 15 16 18 17 17 16 14 12 13 11 11 10 10 12 12 10 10 10
16 17 17 22 24 26 23 23 17 19 23 17 14 14 10 8 7 8 9 10 11 11 12 14 15 16 17 16 16 16 17 13 11 11 10 10 9 10 20 19 21 22 20 14
17 17 17 22 24 24 15 24 20 17 17 18 10 6 6 5 7 12 10 10 10 11 13 13 14 16 16 16 15 17 16 16 12 12 11 10 9 9 9 14 21 21 22 22
12 12 11 7 14 23 20 20 18 15 10 8 5 2 4 6 8 8 10 10 11 12 12 13 14 16 16 15 16 17 15 22 12 11 11 10 9 6 7 8 9 9 19 18
5 7 15 19 18 18 15 12 17 15 12 7 3 4 4 7 8 9 10 10 11 11 11 12 15 17 17 16 17 17 14 11 13 11 10 12 10 5 6 8 8 8 7 15
14 13 11 11 18 18 16 14 14 15 11 7 3 4 4 5 7 9 9 9 11 12 14 13 15 17 15 16 17 12 13 23 18 12 10 11 9 7 3 5 6 6 6 8
5 10 13 18 19 20 20 16 13 12 12 6 4 3 4 5 7 7 8 8 10 10 11 12 16 16 14 15 15 11 10 11 22 12 11 10 9 8 6 3 4 4 4 6
9 12 12 13 16 18 21 16 14 11 9 4 3 3 3 5 6 7 9 10 11 10 9 12 14 17 13 14 15 11 10 11 11 12 11 11 10 8 6 6 4 5 3 4
8 11 13 12 11 12 14 15 13 7 5 3 4 4 4 4 5 7 8 10 10 13 13 15 24 20 15 19 19 10 11 12 13 11 11 15 11 9 8 7 6 3 2 3
12 9 11 13 11 7 11 10 9 6 4 5 4 4 5 4 5 6 7 9 7 8 13 14 17 14 15 17 20 10 11 12 12 11 11 11 10 10 8 10 8 7 4 1
12 10 13 12 12 9 9 8 8 8 6 6 5 5 4 4 5 6 6 6 9 12 13 17 13 11 11 15 12 10 11 12 11 11 11 11 11 10 9 9 8 7 6 4
10 9 12 12 12 11 8 8 7 8 7 7 6 5 4 5 5 5 4 4 8 17 10 9 10 19 15 18 10 11 11 12 11 10 10 10 9 10 9 8 8 7 6 5
13 12 11 10 11 11 8 9 8 9 8 7 7 6 4 3 3 4 5 6 7 12 8 8 17 22 21 10 10 11 11 13 13 11 11 10 9 9 8 8 7 7 7 6
13 12 11 10 8 7 12 10 9 9 8 6 7 6 4 3 3 3 4 8 11 12 9 10 15 21 18 9 9 10 11 12 13 13 12 18 9 8 8 8 8 7 7 7
12 12 12 11 11 9 10 10 8 8 7 7 7 6 5 3 3 2 3 4 9 9 8 13 17 18 9 9 10 10 10 11 13 13 13 12 11 11 10 8 8 8 7 7
14 12 12 12 11 9 7 7 8 6 6 7 6 5 4 3 3 2 2 4 4 7 6 7 8 9 9 9 9 10 10 11 13 13 15 13 12 12 12 12 10 9 6 5
12 15 11 10 8 8 7 8 7 7 8 7 6 6 5 4 3 3 1 2 3 4 5 6 7 9 8 8 8 9 9 10 15 13 13 13 12 12 12 12 11 10 9 9
Wind_Direction
265 269 269 269 259 192 207 223 233 272 258 283 296 302 298 296 293 290 302 295 283 290 308 308 307 305 302 300 299 295 289 285 282 281 276 268 262 256 249 243 243 238 232 233
289 287 237 257 249 231 227 250 258 263 280 271 272 281 282 287 289 297 306 309 300 297 312 310 307 305 302 301 297 298 291 283 284 281 277 271 263 253 243 239 236 233 228 227
267 123 292 270 219 190 190 216 210 222 254 356 295 277 270 290 288 293 300 304 296 306 307 303 303 303 298 299 298 294 289 288 285 284 277 273 264 251 241 233 229 227 224 222
283 305 267 280 146 217 206 238 215 261 272 279 279 284 297 274 278 282 288 290 303 305 299 299 301 301 302 301 295 296 290 289 292 286 281 279 272 246 238 229 225 221 222 218
284 302 293 278 132 192 195 281 251 230 261 273 285 298 270 253 247 261 268 283 282 285 288 292 294 298 302 301 299 299 295 297 293 293 282 279 270 271 231 224 220 218 216 215
21 271 286 317 144 166 170 291 128 212 302 305 326 309 308 180 238 239 258 267 276 287 288 290 296 308 307 303 301 301 302 299 297 288 285 277 267 273 237 223 221 217 212 213
231 259 273 270 243 167 303 316 325 323 308 299 299 273 287 298 282 279 281 292 303 303 295 295 298 302 306 306 299 304 303 301 296 293 284 271 267 270 240 216 218 215 212 211
187 222 274 157 139 273 305 308 310 305 305 305 299 289 288 291 294 303 300 322 319 310 302 304 300 303 299 299 302 307 304 303 301 300 296 243 249 247 231 218 212 210 210 211
208 236 291 233 265 291 288 298 298 300 304 306 300 295 297 294 291 293 315 316 313 301 300 303 304 306 301 301 309 307 311 306 306 303 300 236 231 231 225 214 210 209 209 210
296 241 265 280 293 294 302 291 300 300 296 298 295 297 296 295 301 311 310 318 314 304 304 308 311 310 299 302 309 311 315 312 306 303 302 229 221 219 218 214 211 207 209 209
277 283 287 270 322 307 308 303 305 305 300 298 290 289 287 289 314 309 317 317 313 303 304 304 308 307 305 303 306 320 318 313 309 305 299 294 221 208 216 219 214 211 209 208
272 301 308 310 307 301 308 303 307 309 308 304 290 276 289 297 310 314 313 318 309 309 310 309 311 309 308 306 318 323 323 315 314 311 304 290 257 204 218 224 218 219 217 214
273 298 304 292 292 296 307 314 312 311 299 296 298 271 291 307 313 315 318 311 303 310 303 300 308 309 308 314 320 328 322 318 320 319 306 306 298 207 204 216 219 217 218 219
274 313 298 279 301 308 307 305 310 296 277 282 286 288 297 301 303 311 309 306 300 304 305 306 316 310 309 316 330 331 323 327 320 314 315 311 295 243 198 201 204 208 221 223
309 291 273 285 293 293 309 310 310 315 309 285 247 280 297 297 304 306 305 304 307 300 310 318 320 314 323 330 333 328 334 327 326 322 321 316 304 263 193 203 201 200 197 218
303 297 288 285 298 303 312 310 309 311 307 289 229 254 265 277 294 295 296 311 320 326 317 319 314 317 319 328 331 338 336 336 339 330 329 327 323 329 204 201 201 204 212 197
310 319 322 314 315 311 306 304 295 290 293 270 244 217 249 288 293 300 309 309 306 303 303 311 317 312 332 327 336 348 336 330 338 330 334 332 327 328 325 260 202 216 209 207
235 260 269 266 280 293 300 306 306 307 282 249 189 209 268 283 297 307 310 313 313 320 316 328 318 335 323 337 356 348 341 333 333 331 333 337 337 330 324 330 232 200 205 232
250 263 280 273 264 273 285 290 298 296 246 210 188 234 253 272 289 304 316 320 331 334 335 331 333 331 338 352 3 351 347 338 335 333 337 342 341 343 342 347 338 311 213 223
278 275 272 275 282 261 282 282 280 264 234 210 215 236 262 278 301 318 320 318 316 317 318 332 332 321 346 353 2 359 348 338 334 330 342 344 343 344 343 353 354 345 347 341
267 275 279 286 291 291 278 285 271 255 225 228 229 246 262 293 302 323 318 323 332 321 344 338 325 333 350 357 2 355 347 336 336 334 342 342 339 344 346 347 353 348 338 351
311 273 279 288 289 299 292 267 247 247 222 229 230 237 251 277 299 310 285 293 325 330 345 338 318 351 354 1 356 351 349 337 338 331 342 345 342 342 345 341 351 345 341 344
283 273 274 278 281 290 285 256 239 237 227 223 227 227 229 268 293 311 318 335 331 333 343 333 339 355 357 359 356 348 351 343 339 339 343 341 339 341 343 341 347 346 343 352
272 270 271 275 271 267 266 256 228 230 232 225 228 219 213 239 267 238 292 315 329 345 337 341 344 355 356 358 358 349 353 344 340 346 343 349 336 344 349 350 350 352 349 356
280 285 288 279 270 261 257 251 220 219 220 226 225 213 203 202 243 312 314 322 339 345 333 346 349 351 349 354 2 352 354 348 345 350 347 346 352 356 357 356 353 3 356 353
290 292 293 281 265 269 254 236 227 208 198 218 214 207 194 190 221 256 292 334 345 346 337 345 342 343 348 353 5 357 351 350 347 347 352 346 354 358 359 1 0 1 0 351
293 287 286 280 253 247 237 224 221 210 205 208 214 194 187 183 206 206 269 330 350 345 341 345 341 344 350 350 3 359 353 351 354 353 349 348 349 358 1 1 360 3 4 5